GEFSNGP_500_meanwind_144.txt.gz
Wind_Speed
7 7 8 8 8 9 9 10 10 10 11 12 13 13 14 16 17 19 20 19 20 22 22 22 21 21 20 19 18 18 17 16 15 14 12 11 10 9 9 8 8 8 7 6
8 8 8 8 8 9 9 10 10 10 12 12 13 13 13 14 15 18 19 20 20 21 22 21 20 20 19 20 19 19 18 17 16 15 14 13 12 11 10 9 9 9 9 9
10 9 8 8 8 9 10 11 11 10 11 13 13 13 13 13 14 17 19 19 19 20 20 21 20 19 19 20 19 19 18 18 17 16 15 15 14 13 12 11 11 10 10 10
12 11 10 7 8 9 10 11 11 11 12 13 13 13 13 13 14 16 17 18 19 19 20 21 21 20 20 20 20 19 18 19 18 17 17 16 15 15 14 13 13 12 12 12
13 12 10 9 9 9 10 10 12 12 12 12 13 13 13 13 14 15 16 17 18 19 20 20 20 20 19 19 19 19 18 19 19 19 18 18 17 17 16 16 15 15 14 14
14 13 10 9 10 10 10 9 10 11 12 11 11 11 12 13 13 14 16 16 18 18 19 20 20 20 20 19 19 19 20 20 19 19 19 18 18 18 18 18 18 17 16 16
15 14 11 11 11 11 10 10 11 11 12 12 11 12 12 13 13 14 15 16 17 18 19 19 19 20 20 20 20 20 21 20 20 20 20 19 19 19 18 19 19 19 18 18
16 14 12 12 12 11 11 11 12 12 12 13 13 13 13 14 14 15 15 16 17 18 19 19 20 20 21 21 22 22 21 21 20 21 20 20 20 20 20 19 20 20 20 20
17 15 13 14 13 13 13 12 13 13 13 13 13 13 13 14 14 15 16 17 17 18 18 19 19 20 20 21 22 22 21 21 21 21 21 21 20 20 20 20 21 21 21 21
18 16 16 15 15 14 14 13 14 15 14 14 14 14 13 13 14 15 16 16 17 17 18 19 19 20 21 21 21 21 22 22 22 22 22 22 22 22 22 22 22 22 23 23
19 18 18 17 16 16 15 15 15 15 15 15 15 15 15 15 15 16 17 17 17 18 19 20 20 21 21 22 22 22 22 23 23 23 23 23 23 24 24 24 25 25 25 25
20 19 19 19 18 18 17 17 17 16 16 16 15 16 16 16 16 17 17 18 19 20 20 21 22 22 22 23 23 24 24 24 24 25 25 26 26 26 26 27 27 27 27 28
23 23 22 21 21 20 19 19 19 18 18 18 17 17 18 18 18 18 18 19 19 20 21 22 23 23 24 24 25 25 25 25 26 27 27 28 29 29 29 30 30 30 30 31
25 25 24 24 23 22 22 22 21 20 20 20 20 19 20 20 20 20 20 21 21 21 21 22 23 24 25 25 26 26 27 27 28 28 29 30 30 31 31 32 32 32 33 33
28 27 26 26 25 24 23 23 23 22 22 22 22 22 22 22 22 22 23 23 23 23 23 24 25 26 26 27 28 28 29 29 30 31 31 31 32 32 33 33 34 34 35 36
30 29 28 27 27 25 24 24 24 24 23 23 23 23 23 24 24 24 24 24 25 25 26 26 27 28 28 29 29 30 31 31 31 32 32 33 34 34 35 35 36 36 37 38
32 31 30 29 28 27 27 26 26 26 26 25 25 25 25 25 26 26 26 26 26 27 27 28 28 29 30 31 31 32 32 33 33 34 34 34 35 36 37 38 38 39 40 41
34 33 32 31 31 30 29 28 28 28 28 27 27 26 26 26 27 28 28 28 28 29 29 30 30 31 31 32 33 33 34 34 35 36 36 37 37 38 39 40 40 41 42 42
35 34 33 33 32 31 30 30 29 30 29 29 29 28 28 28 29 29 29 30 30 31 31 32 33 33 34 34 35 35 35 35 36 37 38 39 40 40 41 41 42 43 44 44
35 35 34 35 34 33 32 32 31 30 30 30 30 30 31 31 31 31 32 32 32 33 33 34 35 36 36 36 36 37 37 37 38 39 40 41 41 42 43 43 44 45 46 46
36 35 35 35 35 35 34 34 33 33 32 33 33 33 33 33 34 34 34 35 35 36 36 37 37 38 38 38 39 39 40 40 41 41 42 43 43 44 45 45 46 47 48 49
36 36 36 35 35 35 34 34 34 34 34 34 34 35 35 35 35 36 36 37 37 37 38 38 39 39 40 41 41 42 43 43 44 44 45 45 46 47 47 48 49 50 50 51
38 37 37 36 36 35 35 35 35 35 35 35 35 36 36 36 36 37 37 37 38 38 39 39 40 40 41 41 42 43 44 45 46 46 47 47 48 49 50 51 51 52 53 53
39 38 38 38 37 37 37 37 37 37 37 37 37 37 37 37 37 38 38 38 38 39 39 40 40 41 42 42 43 43 45 46 47 47 48 49 50 50 51 52 53 54 55 56
38 38 38 39 38 38 38 38 39 39 38 38 38 38 38 38 38 38 39 39 39 40 40 41 42 42 43 43 44 44 45 46 47 48 49 50 51 52 53 54 54 55 56 57
38 38 39 39 39 39 40 40 40 39 39 39 39 39 38 38 39 39 39 40 40 41 41 42 43 43 44 45 45 45 46 47 48 49 50 51 52 53 53 54 55 55 56 57
38 38 38 38 38 38 38 38 38 38 38 38 38 38 39 39 39 39 39 40 40 41 41 42 43 43 44 45 45 46 46 47 47 48 49 50 51 52 52 53 54 54 55 56

GEFSNGP_500_meanwind_150.txt.gz
Wind_Speed
10 9 8 9 9 9 9 10 10 11 12 13 13 14 14 16 18 19 18 18 18 18 18 19 20 20 20 19 18 18 18 18 17 16 15 14 12 11 11 10 9 8 8 7
10 10 9 9 9 10 10 10 11 11 11 12 13 14 14 15 16 17 18 18 18 18 17 17 19 20 20 20 20 19 19 19 18 17 16 15 13 12 12 11 10 10 9 9
12 11 10 10 10 10 11 11 11 10 11 12 13 13 14 14 15 16 17 17 17 17 17 17 18 21 21 21 20 20 19 19 19 18 17 16 15 14 14 13 12 11 11 11
13 12 11 10 10 10 10 11 11 11 11 12 12 13 13 14 14 15 16 17 17 17 18 18 18 18 20 21 20 19 19 19 18 19 18 17 16 16 15 14 14 13 12 12
14 13 11 11 11 10 10 11 11 11 11 11 11 11 12 13 14 14 15 16 17 17 18 18 18 18 19 20 20 19 18 18 18 19 19 18 18 17 16 16 15 15 14 14
16 15 12 12 12 11 11 11 10 10 10 10 11 11 12 13 13 13 14 14 15 16 17 18 18 18 19 19 19 18 19 19 18 18 18 18 17 17 17 17 16 16 16 16
16 15 13 13 12 12 12 12 12 11 10 10 10 11 12 12 13 13 13 14 15 15 16 16 16 17 18 19 19 19 19 19 18 18 18 18 18 18 18 18 18 18 18 18
17 16 15 14 12 13 13 13 13 13 12 11 11 11 11 11 12 13 13 14 14 15 15 16 17 17 18 19 19 20 20 20 19 19 19 19 19 18 18 18 18 18 18 18
18 16 16 15 15 14 14 14 14 14 13 13 12 11 11 12 13 13 14 14 14 15 15 15 16 18 19 18 19 20 20 20 20 20 20 20 20 20 20 20 20 20 20 20
20 18 18 17 17 16 15 15 14 14 14 14 13 13 12 12 12 14 14 14 14 15 16 16 17 18 18 19 20 20 20 20 20 20 20 21 21 21 20 21 21 21 21 22
21 20 20 19 18 17 16 16 16 15 15 15 14 14 13 13 13 14 14 15 16 16 16 17 17 18 19 19 19 20 20 20 20 20 20 20 20 21 21 21 22 22 23 23
22 22 22 20 19 19 17 17 16 15 15 15 14 14 14 14 14 15 15 15 16 17 17 18 18 19 20 20 20 20 21 21 22 22 22 22 22 22 23 23 24 24 25 25
25 24 23 22 21 20 20 18 17 16 16 15 15 15 15 15 15 15 16 16 16 17 17 18 18 19 20 21 22 22 22 23 23 24 24 24 24 24 25 25 25 26 27 27
27 26 24 23 22 22 21 21 20 19 18 17 17 16 16 16 16 16 17 17 18 18 18 18 18 19 20 20 21 22 23 24 25 25 25 26 26 26 27 27 28 28 28 29
29 28 26 25 24 24 23 22 22 21 20 20 19 19 18 17 17 17 17 17 18 19 19 20 20 20 21 22 22 23 24 24 25 26 27 27 28 28 29 29 30 30 31 32
31 30 28 27 26 25 24 24 23 23 22 21 21 20 20 19 18 18 18 19 19 19 20 21 21 22 22 23 24 24 25 26 27 28 29 30 31 31 32 32 32 33 34 34
32 31 30 29 28 27 26 26 25 24 24 23 23 22 21 21 20 20 20 20 21 21 22 22 23 24 25 25 26 26 27 28 28 29 30 31 32 33 33 34 35 35 36 37
32 32 31 31 29 28 28 27 26 26 25 24 24 24 24 23 23 23 22 22 22 22 23 23 24 24 26 27 28 28 28 29 29 30 31 32 33 33 34 35 36 37 38 38
33 32 32 32 31 29 29 29 28 27 26 25 25 25 25 25 25 25 25 25 24 24 24 25 25 25 26 26 27 28 29 30 30 31 32 33 34 35 36 37 37 39 40 40
35 33 32 32 32 32 31 30 30 28 27 27 26 26 26 26 27 26 26 26 26 26 26 26 27 27 28 29 29 30 31 31 32 33 34 35 36 37 38 39 40 40 41 42
35 35 34 33 33 33 32 31 30 29 29 28 28 27 27 27 27 27 28 28 28 29 29 29 29 29 30 30 31 32 32 33 34 35 36 37 38 39 40 41 42 43 43 44
36 35 35 34 33 33 33 32 32 31 30 30 30 29 29 29 29 29 30 30 30 31 31 31 32 32 32 32 32 33 34 35 36 36 37 38 39 40 41 42 43 44 45 46
36 35 35 35 34 33 33 32 32 32 32 32 31 31 31 31 31 31 31 31 31 31 31 32 32 33 33 34 35 36 37 37 37 38 39 39 40 41 42 43 44 45 46 47
37 36 36 35 34 34 33 32 32 33 33 33 32 32 32 33 32 32 32 32 32 32 32 33 34 34 35 35 36 36 37 37 38 39 39 40 41 42 42 43 44 45 46 48
36 36 36 35 35 34 34 34 34 33 33 33 34 34 34 34 34 34 34 34 33 33 34 34 35 35 36 36 36 36 37 38 39 39 40 41 42 43 43 44 45 46 48 49
35 35 35 35 35 35 35 35 35 35 34 34 34 34 35 35 35 35 34 34 35 35 35 35 35 36 36 37 38 38 39 39 40 41 42 42 43 44 44 46 47 48 49 50
35 35 35 35 35 35 36 36 36 35 35 35 35 35 35 35 35 34 34 34 35 35 35 36 36 37 37 38 39 39 40 41 42 42 43 43 44 45 46 47 48 49 50 51

GEFSNGP_500_meanwind_156.txt.gz
Wind_Speed
15 14 13 13 13 14 14 13 13 12 12 12 12 11 12 12 13 14 14 15 16 16 16 16 17 17 17 16 16 16 15 14 14 14 14 13 12 11 11 10 10 9 8 7
16 14 14 13 13 13 13 14 14 14 13 13 13 12 12 13 13 14 14 15 15 16 15 15 16 16 16 16 16 16 15 15 15 15 15 14 13 13 12 11 11 11 10 9
16 15 14 13 12 12 13 14 14 14 12 13 13 12 12 12 13 13 14 14 14 15 15 15 16 15 14 15 16 16 16 15 15 15 16 15 14 14 13 13 12 12 12 11
17 16 15 13 13 13 13 13 13 13 13 14 13 12 12 12 13 14 14 15 15 15 15 16 16 16 16 15 15 16 17 16 15 14 15 15 16 15 14 14 13 13 12 12
19 18 16 15 14 13 13 13 13 13 13 13 12 12 12 12 12 13 14 15 15 16 15 15 16 17 17 16 16 17 17 16 15 15 15 15 15 16 15 15 14 14 14 14
20 19 17 15 14 13 13 14 13 12 12 12 12 12 11 12 12 13 14 15 15 16 16 16 15 15 16 16 16 16 17 17 17 16 15 15 15 15 15 14 15 15 15 14
21 20 18 17 15 14 14 13 13 12 12 11 11 12 12 12 13 13 14 14 15 16 16 16 16 15 15 16 16 16 17 17 18 17 15 15 16 16 16 16 16 16 15 15
23 22 18 18 17 16 15 14 13 13 13 12 12 13 12 12 12 13 13 14 14 15 16 16 16 16 15 16 17 17 18 18 18 18 17 17 16 16 17 17 17 17 16 16
24 22 19 18 17 17 16 16 15 15 14 13 13 13 13 12 12 13 13 14 14 14 15 15 16 16 16 16 17 17 17 17 17 18 18 18 18 18 18 18 18 18 18 17
25 23 22 21 20 19 18 17 17 16 15 15 14 14 14 13 13 13 13 13 13 14 14 15 15 16 16 15 15 16 16 17 17 17 18 18 18 18 18 19 19 20 19 19
25 23 22 22 21 20 19 18 18 17 16 15 15 15 14 14 14 13 13 14 14 13 14 14 15 15 15 15 16 16 17 17 17 18 18 18 19 19 20 20 21 21 21 21
26 24 24 23 22 21 20 19 18 18 17 17 16 16 16 15 14 14 14 15 14 14 15 15 16 16 16 16 17 17 17 17 18 18 18 19 19 19 20 21 22 21 22 22
28 27 26 24 23 22 20 20 19 18 18 18 17 17 17 17 16 16 16 16 16 15 16 16 16 16 16 16 17 17 17 18 18 19 19 20 20 20 21 22 22 23 24 25
30 28 27 25 24 23 22 21 20 19 19 19 18 17 17 17 17 16 16 17 17 16 16 16 16 16 16 17 17 17 18 18 19 20 20 21 21 22 22 23 24 25 25 26
31 30 28 27 26 25 24 22 22 21 20 20 19 18 17 17 17 17 17 17 17 17 18 18 18 18 18 18 19 19 19 20 21 22 22 22 23 24 25 26 26 27 27 28
32 31 31 29 28 27 26 25 24 23 22 22 21 19 18 18 18 18 18 18 18 18 18 19 19 19 19 19 20 20 21 22 22 23 24 24 26 27 28 29 29 30 30 31
32 32 32 30 29 28 27 26 25 24 23 23 22 21 20 20 19 19 19 20 20 20 20 20 20 20 21 21 21 22 22 23 23 24 25 25 26 27 29 30 30 31 32 33
32 32 33 31 30 29 29 28 27 26 24 24 24 23 23 22 21 21 21 21 21 21 21 21 21 21 22 23 23 23 24 24 25 26 27 27 28 28 29 31 32 33 34 35
34 34 33 33 32 31 29 28 27 26 25 25 24 24 24 24 23 23 23 23 23 22 22 22 23 23 23 24 24 25 25 25 26 27 28 29 29 30 31 32 33 34 35 36
35 35 35 34 34 33 31 30 29 28 27 26 26 25 24 24 24 24 24 24 24 24 24 24 24 25 25 26 26 27 27 28 28 29 29 30 31 32 33 34 35 36 37 38
35 36 36 36 35 34 32 31 30 29 28 28 27 26 26 26 25 25 25 25 26 26 26 26 26 27 28 28 29 29 30 30 30 31 32 32 33 34 35 36 37 38 39 40
36 36 36 36 35 35 34 33 32 31 30 29 29 28 28 28 27 27 26 26 26 27 27 28 28 29 30 30 30 31 31 32 32 33 33 34 35 35 36 37 38 39 40 41
36 36 36 36 36 36 35 34 33 32 32 31 31 30 30 30 30 29 28 28 28 28 28 29 30 30 31 32 32 32 33 33 34 34 35 35 36 37 38 39 40 40 41 42
36 37 37 37 37 36 36 34 33 33 33 33 32 32 32 32 31 31 31 30 30 30 30 30 31 31 32 33 33 33 34 34 35 35 36 37 37 38 39 40 41 42 43 44
37 37 38 38 38 37 36 35 34 33 32 33 34 34 33 33 33 32 32 31 31 31 32 32 32 32 32 33 33 34 35 35 36 36 37 37 38 39 40 41 42 42 43 44
37 37 37 37 37 37 37 37 36 36 35 34 34 34 34 34 34 33 33 33 33 33 33 33 33 33 33 34 35 35 36 37 37 38 38 39 40 40 41 42 42 43 44 45
36 36 36 36 36 36 36 37 37 36 36 35 35 35 35 35 35 35 35 34 34 34 34 34 35 35 36 36 36 36 36 37 38 38 39 39 40 41 42 42 44 45 46 46

GEFSNGP_500_meanwind_162.txt.gz
Wind_Speed
17 17 16 15 14 13 12 11 12 10 10 9 9 9 9 9 10 10 12 13 13 15 16 16 18 19 18 17 17 17 17 16 15 15 14 14 14 14 13 13 12 11 10 9
18 17 17 15 14 13 12 12 11 11 10 10 10 10 10 10 11 11 12 13 14 15 16 17 18 18 18 18 18 17 17 17 16 15 15 14 14 14 14 13 13 12 11 10
19 18 17 15 13 13 13 12 11 11 10 11 10 10 10 11 11 11 12 13 14 16 16 17 19 19 18 18 18 18 17 17 16 16 16 15 14 14 14 14 13 12 12 12
20 19 18 14 14 13 12 12 11 10 10 11 11 11 11 11 12 12 12 14 15 16 17 18 19 19 18 18 18 17 17 18 18 17 16 15 15 14 14 13 13 13 13 13
21 20 18 16 15 14 13 12 11 10 10 10 11 11 11 11 11 11 12 14 15 16 17 18 18 19 19 18 18 17 17 17 18 18 17 16 16 15 15 15 14 13 13 13
22 20 18 16 16 15 14 12 11 10 10 10 11 11 10 11 11 12 12 14 15 16 17 17 18 18 18 18 18 17 18 18 17 18 17 17 17 17 16 16 15 15 14 14
23 22 18 17 16 16 15 12 12 11 11 11 11 11 11 11 11 11 12 13 15 15 16 17 17 18 18 18 18 18 18 18 18 18 18 18 17 17 17 16 16 16 16 15
24 23 19 18 18 17 15 14 13 12 11 11 11 11 11 12 12 12 12 13 14 15 16 16 17 18 18 18 19 19 19 19 19 20 19 19 19 18 17 17 17 17 17 16
25 22 20 20 19 17 17 15 14 12 11 11 11 11 11 12 13 13 12 13 14 15 16 16 17 18 18 18 18 18 19 19 19 19 19 19 19 19 18 17 17 17 18 18
26 23 22 21 20 18 17 16 15 14 13 12 11 11 11 12 13 13 13 14 14 15 15 16 17 17 18 17 17 17 18 19 19 19 19 19 19 19 19 19 18 18 18 19
26 24 24 22 21 20 18 17 16 16 15 14 13 12 12 13 14 14 14 14 15 15 15 15 16 17 18 19 19 19 18 19 19 19 19 18 18 18 18 19 19 19 20 20
26 25 24 23 22 21 19 18 18 16 15 15 14 14 13 13 14 15 15 15 15 16 16 15 15 16 17 18 19 18 18 17 18 18 18 18 18 19 19 19 19 20 21 21
27 27 25 24 23 22 20 19 18 17 16 16 15 15 15 14 15 16 15 16 16 16 16 15 15 16 16 16 16 17 17 17 18 18 19 19 19 19 20 20 20 20 21 21
28 27 26 24 22 22 21 20 19 18 17 16 16 16 15 15 15 16 16 16 16 16 16 16 16 16 16 17 17 17 18 18 18 18 18 19 20 20 21 21 22 23 23 24
30 29 27 26 24 23 23 21 20 19 17 17 16 16 16 16 16 16 16 17 17 17 17 17 17 17 17 18 18 18 19 19 19 20 20 20 21 22 22 23 24 25 25 26
31 30 29 28 27 26 24 23 22 20 19 18 18 17 17 17 18 17 17 18 18 18 18 18 18 18 18 18 19 19 20 20 20 21 21 21 22 23 23 24 25 26 26 27
32 31 30 28 28 27 26 25 23 21 21 20 20 20 19 18 18 18 18 18 18 18 18 18 18 19 19 19 19 20 21 21 21 22 22 22 23 23 24 26 27 27 28 30
33 32 31 30 29 28 27 27 26 24 23 23 22 22 21 20 20 19 19 19 19 20 20 19 20 20 20 20 20 21 22 22 23 23 24 24 24 25 26 27 28 29 30 31
33 32 31 31 32 31 29 29 28 27 25 25 24 24 23 23 22 22 22 22 21 21 21 21 21 21 21 21 21 22 23 23 24 24 25 25 26 26 27 28 29 30 31 31
32 32 32 32 32 32 31 30 29 28 27 27 25 24 24 24 24 23 23 23 23 23 23 23 23 22 22 22 23 23 24 24 25 25 26 26 27 28 28 29 29 31 31 32
31 31 31 32 32 32 32 31 30 29 29 28 27 26 25 25 25 25 24 24 25 25 25 24 24 24 24 24 24 25 25 26 26 27 27 28 29 29 30 31 32 33 34 35
31 31 31 31 32 33 32 32 31 30 30 29 28 27 26 26 26 26 25 25 25 25 25 26 26 26 26 25 26 26 27 27 27 28 29 29 30 31 32 32 33 34 36 37
31 31 31 31 32 33 33 33 32 31 31 31 30 29 28 27 27 27 27 26 26 26 25 25 26 26 27 27 28 28 28 28 29 30 30 31 32 32 33 34 35 36 37 38
32 32 32 32 32 33 34 33 33 33 33 32 31 30 30 29 29 28 28 28 28 27 27 26 26 26 27 27 28 29 30 30 31 32 32 33 34 35 35 36 36 37 38 39
32 33 33 33 33 33 33 33 34 33 33 32 32 32 31 30 29 29 29 29 29 28 28 28 28 28 28 29 29 30 31 32 32 33 34 34 35 36 36 37 37 38 39 40
32 33 33 33 33 34 33 33 34 34 33 32 32 32 31 31 30 30 29 29 29 29 30 30 30 30 30 30 31 31 32 32 33 34 35 35 35 36 37 37 38 39 39 40
32 33 33 33 33 34 34 33 33 34 35 34 33 32 32 32 32 31 31 31 31 31 32 31 31 31 31 31 32 32 33 33 34 34 35 35 36 37 37 38 39 39 40 41

GEFSNGP_500_meanwind_168.txt.gz
Wind_Speed
19 19 19 18 17 17 15 14 13 12 12 11 12 11 11 11 11 11 11 12 13 14 16 18 18 18 18 17 17 16 16 16 14 13 12 12 11 11 11 11 12 12 11 10
21 20 20 19 18 17 16 15 14 13 13 13 13 13 12 12 12 12 12 12 13 14 15 17 17 18 18 18 18 17 16 16 16 14 13 12 12 12 12 12 12 12 12 11
22 21 20 19 17 17 17 15 14 13 13 15 14 14 13 13 13 13 13 14 13 14 15 17 17 18 18 19 19 18 17 16 15 15 14 14 13 13 13 12 13 13 13 12
23 22 22 18 17 17 17 16 14 13 14 14 14 14 13 13 13 13 14 14 14 14 16 17 18 18 18 19 19 19 18 17 17 16 15 14 14 14 13 13 12 13 13 13
25 24 21 19 18 17 16 15 14 14 14 14 13 12 12 12 12 13 13 14 14 16 17 17 17 18 19 19 19 19 19 18 17 17 16 15 15 15 14 14 13 13 14 14
26 25 22 18 18 18 17 16 15 15 14 13 13 11 11 12 12 12 13 14 14 16 17 17 18 18 19 19 19 19 18 18 18 18 18 17 16 16 16 15 15 15 15 15
27 26 22 19 19 18 18 15 16 16 15 14 13 13 13 13 13 13 13 14 15 17 17 17 18 18 19 19 20 20 19 18 18 18 18 17 17 17 17 17 16 16 16 16
28 26 22 20 19 19 17 17 17 16 15 14 13 13 13 13 13 13 14 15 15 17 17 17 17 18 18 19 20 19 19 18 18 18 17 17 17 17 17 17 17 17 17 16
28 26 23 22 21 20 19 19 18 17 16 15 14 14 14 14 14 14 14 15 15 16 17 17 17 17 18 18 18 18 18 18 18 18 17 17 17 17 18 17 17 17 18 17
29 27 26 24 23 23 21 20 20 19 18 16 15 14 14 15 15 15 14 15 15 16 16 17 17 17 18 18 18 19 18 18 19 18 17 18 18 18 18 18 18 18 18 18
29 27 27 26 25 24 23 22 21 20 19 18 16 15 15 15 15 16 15 15 15 15 16 16 16 17 17 17 16 16 17 17 18 17 17 17 17 17 18 19 19 19 19 19
29 28 28 27 25 25 24 23 22 21 20 19 17 16 16 15 15 15 16 16 15 15 16 16 16 16 17 17 17 16 16 16 16 17 17 18 17 18 19 18 18 18 18 18
30 29 28 27 26 25 24 23 23 22 21 19 18 18 17 16 16 16 16 16 16 16 17 17 17 17 17 17 17 16 16 16 16 17 17 17 18 18 18 19 19 18 19 19
31 30 28 27 27 26 24 24 24 22 22 21 19 18 17 16 16 17 17 18 17 17 17 18 18 18 18 17 17 17 17 17 17 18 18 18 18 19 19 19 20 20 20 21
31 30 29 28 28 27 25 25 24 23 23 22 20 19 19 17 16 17 17 18 18 18 18 18 18 19 19 19 19 19 19 18 18 18 18 18 18 19 19 20 20 21 22 22
31 31 31 30 29 28 26 25 25 24 23 22 21 21 20 18 17 17 18 19 19 19 19 19 19 19 19 19 19 19 19 19 19 18 18 18 19 19 20 20 21 22 23 23
31 31 31 30 29 28 27 27 27 25 24 24 23 22 21 20 19 18 18 19 19 19 20 20 20 20 19 19 19 19 18 18 19 19 19 19 20 20 21 21 22 23 24 25
31 32 32 32 30 29 28 28 28 27 26 25 25 24 23 21 20 20 19 19 20 20 20 21 21 21 21 20 20 20 20 20 20 20 21 21 21 22 22 23 24 24 25 26
32 32 32 32 31 30 30 29 29 28 28 27 26 26 24 23 22 22 21 21 21 21 21 21 21 21 21 21 21 21 21 21 21 22 22 23 23 23 24 25 26 27 28 29
31 33 32 32 31 31 31 30 30 29 29 28 27 27 26 25 24 24 23 23 23 23 22 22 22 22 22 22 22 22 22 22 23 23 23 24 25 25 26 27 28 28 29 30
31 32 32 32 32 31 31 31 30 30 29 29 29 28 27 26 27 25 24 24 24 24 24 24 23 23 22 22 22 22 23 23 24 24 25 26 26 26 27 28 28 29 30 31
31 31 32 31 31 31 31 31 31 31 31 30 30 29 28 28 27 26 25 25 25 25 25 25 24 23 23 23 23 24 24 24 25 26 26 27 27 27 28 29 30 31 32 32
30 31 31 31 31 31 31 31 32 31 31 30 30 30 29 29 28 27 26 26 26 27 27 26 26 26 26 26 25 25 26 26 27 27 28 28 29 29 30 31 32 33 33 34
31 31 31 31 31 30 30 31 31 31 31 30 30 31 31 30 30 29 28 28 28 28 28 28 27 27 27 27 27 28 28 28 29 29 29 30 30 31 32 33 33 33 34 35
30 30 30 31 31 31 31 31 30 30 31 31 31 31 31 31 31 30 30 30 30 30 29 29 29 29 28 28 28 29 29 29 29 30 31 32 32 33 33 33 34 34 34 35
30 30 30 30 30 31 31 31 31 30 30 31 32 32 32 32 31 31 31 31 31 31 30 30 30 30 30 30 29 29 29 29 30 30 31 31 32 33 33 34 35 35 36 37
31 31 30 30 30 31 31 32 32 32 32 32 32 32 32 32 32 32 32 32 31 31 31 32 32 32 31 30 30 30 31 31 32 32 32 33 33 34 34 35 35 36 37 37

GEFSNGP_500_meanwind_174.txt.gz
Wind_Speed
22 22 21 20 19 19 18 16 15 14 14 13 13 12 12 12 11 11 11 12 12 13 13 14 15 16 16 16 16 15 15 14 14 14 14 13 13 13 13 12 12 11 10 9
23 23 23 22 21 20 19 18 16 15 14 15 14 13 13 13 12 11 11 12 12 12 13 13 15 16 16 16 16 15 15 15 15 15 14 14 13 12 12 12 12 11 11 10
24 23 23 23 21 20 19 18 18 16 14 16 15 14 13 13 12 12 12 12 13 13 13 13 14 15 16 16 16 15 15 15 16 15 14 14 13 13 13 13 12 12 12 11
25 25 25 21 21 21 20 19 18 16 15 15 15 15 14 13 13 12 12 12 12 13 14 14 14 15 16 17 16 16 15 16 17 16 15 14 14 14 13 13 13 13 13 13
26 26 24 22 21 20 20 19 18 17 16 15 15 15 14 14 13 12 11 12 13 14 14 14 15 15 15 17 17 17 16 16 17 17 16 15 14 14 14 14 14 14 13 13
28 27 25 22 22 21 21 20 19 18 17 16 15 14 14 14 13 12 12 12 13 13 14 14 14 15 15 15 17 17 17 18 18 18 17 17 17 16 15 16 15 15 14 14
29 28 26 23 22 22 21 19 19 18 17 16 15 15 14 14 14 14 13 13 14 14 14 15 15 15 15 16 16 17 18 18 18 18 17 18 18 17 17 16 16 16 16 15
30 29 27 24 24 23 20 20 19 18 18 17 16 15 15 15 15 14 14 14 14 14 15 15 15 16 17 18 18 18 18 19 19 18 17 17 17 18 18 17 17 16 15 15
30 29 27 25 24 22 22 20 19 19 19 18 18 17 16 15 15 15 15 15 15 16 16 16 16 15 16 18 19 18 18 19 19 18 18 17 17 17 18 17 17 16 16 16
30 29 28 27 26 24 24 22 21 20 20 19 18 17 17 16 16 16 16 16 17 17 17 17 17 17 17 18 18 19 19 19 19 19 18 18 17 17 17 17 17 17 17 17
30 29 29 28 26 25 25 24 23 22 21 20 19 18 18 17 16 16 16 16 16 17 17 17 18 18 18 18 19 20 19 19 20 20 19 19 18 18 18 18 18 18 18 18
29 29 29 28 27 26 25 25 24 23 22 21 20 20 19 18 18 17 17 17 17 17 18 18 19 19 19 19 19 19 19 20 20 20 19 19 19 19 19 19 19 19 19 18
29 29 29 29 28 28 26 25 24 24 23 22 21 21 20 19 18 18 17 17 17 17 18 18 19 19 19 19 18 18 18 19 20 20 20 19 19 19 19 19 18 18 19 19
29 29 29 29 28 28 27 26 25 24 23 22 22 21 20 20 19 18 18 17 17 18 18 18 18 19 19 18 18 18 18 18 18 19 19 19 19 18 19 19 19 19 19 20
30 29 29 29 28 28 28 27 26 25 24 23 23 22 21 20 20 20 19 18 18 19 18 18 17 18 19 18 18 18 18 17 17 18 18 18 18 18 18 19 19 20 20 20
31 29 29 29 29 29 28 28 27 26 25 25 24 23 22 21 21 20 19 18 18 19 19 19 18 18 19 19 19 19 18 18 18 18 18 18 18 19 19 20 20 20 20 20
31 30 29 29 29 29 29 28 27 27 26 26 25 24 23 22 21 20 20 19 20 20 19 19 19 20 20 20 20 20 19 20 19 19 19 19 19 19 19 20 20 20 20 21
31 31 30 29 29 29 28 28 28 27 27 26 25 25 24 24 23 22 21 21 21 21 21 20 20 20 20 21 21 20 20 21 20 20 20 19 19 19 20 21 21 21 21 22
31 30 30 29 29 29 28 28 28 28 27 27 26 25 25 25 25 24 23 22 22 22 22 22 21 20 20 21 21 21 21 21 21 21 20 20 20 21 21 22 22 22 23 24
31 30 29 29 29 29 29 29 29 29 28 28 27 27 26 25 25 25 24 23 23 23 23 23 23 23 22 22 22 22 22 22 21 22 22 22 22 22 22 23 23 23 24 24
30 29 29 29 29 30 30 30 29 29 28 28 28 28 27 27 27 26 26 25 25 25 25 24 24 24 23 24 24 23 23 23 23 23 23 23 23 23 24 24 24 24 25 25
30 30 30 30 30 30 30 30 30 29 29 29 29 29 28 28 27 27 27 27 27 26 26 25 25 25 25 25 25 25 25 25 24 24 24 24 24 25 25 25 25 26 27 27
30 30 30 30 30 30 31 30 30 30 29 29 29 29 29 28 28 28 28 28 27 27 27 27 27 27 26 26 26 26 26 26 25 25 25 25 25 25 26 26 26 27 28 29
29 30 30 31 31 31 31 30 30 30 30 30 30 30 30 29 29 29 29 29 28 28 28 28 28 28 28 27 27 27 28 27 27 27 26 26 27 27 27 28 28 29 30 31
30 30 30 31 31 31 31 31 30 30 31 31 31 30 30 30 29 29 29 29 29 29 29 28 28 28 28 28 28 28 28 28 28 27 27 28 28 28 29 29 30 30 31 32
31 30 30 31 31 31 31 30 30 29 30 30 30 30 30 29 29 29 29 29 29 29 29 29 29 28 28 27 27 28 28 28 29 29 30 30 30 30 30 31 31 31 32 33
30 30 30 30 31 32 31 31 31 30 29 29 29 28 29 29 28 28 28 28 28 28 29 29 29 28 28 28 28 28 29 29 30 30 30 31 31 31 32 32 33 33 33 34